#timestamp,LO_Frequency,Hit,StdDev 
1639562415.9,286046995.3,N
1639562435.7,286046996.4,N
1639562455.6,286046993.9,N
1639562475.4,286046996.0,N
1639562495.2,286046997.3,N
1639562515.1,286046996.8,N
1639562516.0,286046996.8,N
1639562535.8,286046996.5,N
1639562555.6,286046996.8,N
1639562575.5,286046995.2,N
1639562595.3,286046995.3,N
1639562615.2,286046996.1,N
1639562635.9,286046995.5,N
1639562655.7,286046996.4,N
1639562675.6,286046999.2,N
1639562695.4,286046997.6,N
1639562715.2,286046995.8,N
1639562735.1,286046997.4,N
1639562736.0,286046997.4,N
1639562755.8,286046999.5,N
1639562775.7,286047001.1,N
1639562795.5,286046998.5,N
1639562815.3,286046998.7,N
1639562835.2,286047001.2,N
1639562855.0,286046998.4,N
1639562855.9,286046998.4,N
1639562875.8,286046998.5,N
1639562895.6,286046998.3,N
1639562915.4,286047000.8,N
1639562935.3,286047001.0,N
1639562955.1,286046996.6,N
1639562975.8,286046997.2,N
1639562995.7,286046997.6,N
1639563015.5,286046997.1,N
1639563035.4,286046999.1,N
1639563055.2,286047001.0,N
1639563075.0,286047001.2,N
1639563075.9,286047001.2,N
1639563095.8,286046998.3,N
1639563115.6,286046999.0,N
1639563135.4,286046998.0,N
1639563155.3,286046997.1,N
1639563175.1,286046999.5,N
1639563195.9,286046999.0,N
1639563215.7,286046996.6,N
1639563235.5,286047011.9,Y
1639563255.4,286046998.5,P
1639563275.2,286046998.3,P
1639563295.1,286047000.1,N
1639563296.0,286047000.1,N
1639563315.8,286047000.9,N
1639563335.6,286046999.9,N
1639563355.5,286047000.2,N
1639563375.3,286047002.2,N
1639563395.2,286047002.4,N
1639563415.9,286046998.8,N
1639563435.7,286046998.3,N
1639563455.6,286047000.8,N
1639563475.4,286047001.0,N
1639563495.3,286046998.4,N
1639563515.1,286046999.0,N
1639563535.8,286046998.3,N
1639563555.7,286046998.8,N
1639563575.5,286046998.5,N
1639563595.4,286046996.5,N
1639563615.2,286046998.8,N
1639563635.0,286047001.2,N
1639563635.9,286047001.2,N
1639563655.8,286046999.9,N
1639563675.6,286047000.3,N
1639563695.5,286047000.2,N
1639563715.3,286047001.2,N
1639563735.1,286047000.4,N
1639563755.9,286047000.4,N
1639563775.7,286047002.1,N
1639563795.6,286047002.4,N
1639563815.4,286047000.1,N
1639563835.2,286046998.6,N
1639563855.1,286047000.4,N
1639563856.0,286047000.4,N
1639563875.8,286047000.1,N
1639563895.7,286046999.8,N
1639563915.5,286047002.1,N
1639563935.3,286047002.2,N
1639563955.2,286047002.4,N
1639563975.0,286047002.0,N
1639563975.9,286047002.0,N
1639563995.8,286047001.8,N
1639564015.6,286047004.0,N
1639564035.4,286047003.4,N
1639564055.3,286047004.2,N
1639564075.1,286047004.0,N
1639564095.8,286047000.1,N
1639564115.7,286047000.4,N
1639564135.5,286046999.9,N
1639564155.4,286047000.3,N
1639564175.2,286047001.2,N
1639564195.0,286046999.8,N
1639564195.9,286046999.8,N
1639564215.8,286047002.7,N
1639564235.6,286047002.8,N
1639564255.5,286047000.3,N
1639564275.3,286047000.9,N
1639564295.1,286047000.9,N
1639564315.9,286047000.4,N
1639564335.7,286046999.8,N
1639564355.6,286047002.8,N
1639564375.4,286046999.8,N
1639564395.2,286046999.7,N
1639564415.1,286047002.0,N
1639564416.0,286047002.0,N
1639564435.8,286047001.9,N
1639564455.6,286047000.9,N
1639564475.5,286047000.9,N
1639564495.3,286047000.3,N
1639564515.2,286047000.4,N
1639564535.0,286047001.0,N
1639564535.9,286047001.0,N
1639564555.7,286047000.2,N
1639564575.6,286047000.4,N
1639564595.4,286047000.8,N
1639564615.3,286046998.6,N
1639564635.1,286047000.4,N
1639564655.8,286046999.9,N
1639564675.7,286047002.3,N
1639564695.5,286047003.6,Y
1639564715.4,286047000.7,P
1639564735.2,286047001.2,P
1639564755.0,286047000.5,N
1639564755.9,286047000.5,N
1639564775.8,286047000.2,N
1639564795.6,286047002.8,Y
1639564815.5,286047000.4,P
1639564835.3,286047002.5,P
1639564855.1,286047002.7,N
1639564875.9,286047002.1,N
1639564895.7,286047001.7,N
1639564915.5,286047002.6,N
1639564935.4,286047002.1,N
1639564955.2,286047001.9,N
1639564975.1,286047004.4,Y
1639564976.0,286047004.4,P
1639564995.8,286047000.1,N
1639565015.6,286046999.7,N
1639565035.5,286047000.2,N
1639565055.3,286046999.9,N
1639565075.2,286047000.2,N
1639565095.9,286047002.4,N
1639565115.7,286047000.3,N
1639565135.6,286047001.2,N
1639565155.4,286046998.6,N
1639565175.2,286047001.2,N
1639565195.1,286046999.6,N
1639565196.0,286046999.6,N
1639565215.8,286046997.1,N
1639565235.7,286046996.8,N
1639565255.5,286046999.0,N
1639565275.3,286046997.7,N
1639565295.2,286046994.9,N
1639565315.0,286046995.7,N
1639565315.9,286046995.7,N
1639565335.7,286046996.1,N
1639565355.6,286046996.3,N
1639565375.4,286046991.8,Y
1639565395.3,286046993.7,P
1639565415.1,286046995.5,N
1639565435.8,286046995.5,N
1639565455.7,286046997.8,N
1639565475.5,286046999.2,N
1639565495.4,286046996.7,N
1639565515.2,286046999.1,N
1639565535.0,286046998.7,N
1639565535.9,286046998.7,N
1639565555.8,286046999.5,N
1639565575.6,286046998.7,N
1639565595.4,286046996.9,N
1639565615.3,286046999.2,N
1639565635.1,286046995.4,N
1639565655.9,286046997.2,N
1639565675.7,286046999.2,N
1639565695.5,286046999.9,N
1639565715.4,286047000.2,N
1639565735.2,286047000.9,N
1639565755.0,286046999.9,N
1639565755.9,286046999.9,N
1639565775.8,286047000.8,N
1639565795.6,286046998.8,N
1639565815.5,286046996.6,N
1639565835.3,286046995.8,N
1639565855.1,286046995.5,N
1639565875.9,286046996.2,N
1639565895.7,286046995.5,N
1639565915.6,286046995.8,N
1639565935.4,286046994.9,N
1639565955.2,286046996.2,N
1639565975.1,286046997.7,N
1639565976.0,286046997.7,N
1639565995.8,286046994.9,N
